SAUDICOMSAT 6

Last updated on Fri Dec 29 2023 00:03:02 GMT+0000 (Greenwich Mean Time)

1 31121U 07012E 23362.45475872 .00001203 00000+0 25214-3 0 9998 2 31121 98.2903 305.6694 0073624 253.8177 105.4912 14.59951740888549
UTC large
Height (km)
Speed (km/s)
/
Latitude / Longitude
Inclination (degrees)
Orbital Period (minutes)
Azimuth
Elevation
Range (km)
Doppler Factor

Next 0 passes for location: London (51.5072 / 0.1276)

Sorry there are no passes over London.